Погода в Сургхете

Непал     28°36′23″N   81°36′51″E
темп.,
°C
ветер,
м/с
пор.,
м/с
влажн.,
%
обл.,
%
осадки,
мм/ч
давл.,
гПа
погр.,
м
21 января, пт
пт2123:45+10св22705 0.0 101315
02:45+10св21735 0.0 101215
05:45+9св22725 0.0 101216
08:45+13всв11575 0.0 1014110
11:45+19ююз22415 0.0 10141345
14:45+20юз224013 0.0 10111718
17:45+14юз11629 0.1 101110
20:45+12св21694 0.0 101311
22 января, сб
сб2223:45+11св21734 0.0 101314
02:45+10св22741 0.0 101221
05:45+10св2274100 0.0 101017
08:45+14ссв1158100 0.0 1012116
11:45+18ю2247100 0.0 10121201
14:45+19ю233992 0.0 10091635
17:45+14ю11586 0.0 100911
20:45+12св22655 0.0 101121
23 января, вс
вс2323:45+12св226383 0.0 101128
02:45+12св225988 0.0 101029
05:45+12всв215597 0.0 101027
08:45+12св336396 0.1 1012136
11:45+18ююз234887 0.1 10121031
14:45+13с228694 1.1 1010127
17:45+12всв118544 2.2 101011
20:45+12св228938 1.9 101341
24 января, пн
пн2423:45+12св228594 1.9 101332
02:45+11ссв239090 1.3 101266
05:45+11ссв238897 1.6 101259
08:45+13св228158 0.1 101474
11:45+19зюз115134 0.4 10141022
14:45+18ююз116113 2.7 1011470
17:45+14всв117634 3.9 101111
20:45+12св218159 0.2 101411
25 января, вт
вт2523:45+11св218776 0.7 101418
02:45+11св228655 0.4 101318
05:45+10св228530 0.4 101316
08:45+13св12765 0.0 101481
11:45+18ююз225662 0.4 1014884
14:45+17юз016316 1.3 1011605
17:45+14ююв117769 1.9 101011
20:45+13ссв1182100 0.3 101311